This is the latest recevied weather packets stored in our database for station/object KB0BS-13. If no packets are shown the sender has not sent any weather packets the latest 10 day(s).
| Time | Temp. | Humidity | Pressure | Rain* | Wind** | Luminosity | Snow |
|---|---|---|---|---|---|---|---|
| 1778093500 | 5° C | 60% | 1013.3 hPa | 0 mm | - | 228 W/m² | - |
| 1778093198 | 5° C | 58% | 1013.1 hPa | 0 mm | - | 218 W/m² | - |
| 1778092895 | 5° C | 59% | 1013.3 hPa | 0 mm | - | 230 W/m² | - |
| 1778092592 | 5° C | 63% | 1013 hPa | 0 mm | - | 236 W/m² | - |
| 1778092288 | 5° C | 62% | 1013.1 hPa | 0 mm | - | 268 W/m² | - |
| 1778091986 | 5° C | 61% | 1012.9 hPa | 0 mm | - | 275 W/m² | - |
| 1778091682 | 5° C | 60% | 1013 hPa | 0 mm | - | 293 W/m² | - |
| 1778091380 | 5° C | 61% | 1013.1 hPa | 0 mm | - | 231 W/m² | - |
| 1778091077 | 5° C | 61% | 1013 hPa | 0 mm | - | 195 W/m² | - |
| 1778090774 | 5° C | 60% | 1013.2 hPa | 0 mm | - | 231 W/m² | - |
| 1778090470 | 5° C | 60% | 1012.9 hPa | 0 mm | - | 253 W/m² | - |
| 1778090166 | 4.44° C | 60% | 1013.3 hPa | 0 mm | - | 245 W/m² | - |
| 1778089863 | 5° C | 59% | 1013.3 hPa | 0 mm | - | 218 W/m² | - |
| 1778089562 | 5° C | 59% | 1013.1 hPa | 0 mm | - | 198 W/m² | - |
| 1778089257 | 5° C | 57% | 1013.2 hPa | 0 mm | - | 218 W/m² | - |
| 1778088955 | 5° C | 61% | 1013.2 hPa | 0 mm | - | 264 W/m² | - |
| 1778088652 | 4.44° C | 60% | 1013.1 hPa | 0 mm | - | 230 W/m² | - |
| 1778088349 | 4.44° C | 57% | 1013.4 hPa | 0 mm | - | 191 W/m² | - |
| 1778088045 | 5° C | 60% | 1013.4 hPa | 0 mm | - | 233 W/m² | - |
| 1778087743 | 4.44° C | 60% | 1013.4 hPa | 0 mm | - | 239 W/m² | - |
| 1778087440 | 5° C | 60% | 1013.3 hPa | 0 mm | - | 213 W/m² | - |
| 1778087132 | 5° C | 60% | 1013.4 hPa | 0 mm | - | 238 W/m² | - |
| 1778086830 | 5° C | 59% | 1013.2 hPa | 0 mm | - | 274 W/m² | - |
| 1778086528 | 5° C | 61% | 1013.3 hPa | 0 mm | - | 254 W/m² | - |
| 1778086223 | 4.44° C | 62% | 1013.3 hPa | 0 mm | - | 228 W/m² | - |
* Rain latest hour (hover to see other rain measurements)
** Current wind speed in m/s (hover to see current wind gust speed)